カタログに戻る

STARLINK-37771

運用中通信SSO
NORAD 69439·PAYLOAD·🇺🇸 United States

打ち上げ Jun 7, 2026 から Vandenberg Space Force Base

Loading…

次のパス (今後24時間)

TLE

最新Source: CelesTrak SupGP

元期: Sep 14, 2026, 21:01 UTC

1 69439C 26126V   26257.87618056  .00011014  00000+0  34206-3 0  2572
2 69439  97.2848 119.1499 0001976  88.8262 139.3844 15.33416749    18

AllMySatでSTARLINK-37771をリアルタイム追跡

Download on the App Store